カタログに戻る

COSMOS 1579

運用中軍事LEO
NORAD 15085·PAYLOAD·🇷🇺 Russia

打ち上げ Jun 29, 1984 から Baikonur Cosmodrome

Loading…

次のパス (今後24時間)

TLE

最新Source: Space-Track

元期: Sep 14, 2026, 05:49 UTC

1 15085U 84069A   26257.24276171 -.00000077  00000-0  10111-4 0  9991
2 15085  65.0496 213.0106 0049455 343.5015  16.4435 13.86223534138127

AllMySatでCOSMOS 1579をリアルタイム追跡

Download on the App Store